AEHF-5 (USA 292)

Last updated on Sun Oct 06 2024 00:02:41 GMT+0000 (Coordinated Universal Time)

1 44481U 19051A 24279.55879050 -.00000224 00000+0 00000+0 0 9997 2 44481 2.4916 309.1390 0053714 11.1624 345.5987 1.00269928 19047
UTC large
Height (km)
Speed (km/s)
/
Latitude / Longitude
Inclination (degrees)
Orbital Period (minutes)
Azimuth
Elevation
Range (km)
Doppler Factor

Next 0 passes for location: London (51.5072 / 0.1276)

Sorry there are no passes over London.